Location: Maccacari
(45.1333°N, 11.1333°E)
Time: 08:10:20
(UTC+00:00)

SR - Pass Details

Date: 27 January 2021
Orbit: 573 x 882 km, 66.7° (Epoch: 04 March)

Event Time Altitude Azimuth Distance (km) Brightness Sun altitude
Exits shadow 03:05:58 18° 40° (NE) 1,811 ? -37.8°
Drops below altitude 10° 03:07:16 10° 37° (NE) 2,303 ? -37.6°
Sets 03:09:48 0° 35° (NE) 3,284 ? -37.2°
